Federal Corporation

Jurisdiction: Canada
Source: Corporations Canada

This dataset includes 826 thousand corporation entities registered with Corporations Canada, a division of Innovation, Science and Economic Development Canada. Each corporation is registered with corporation number, corporate name, office address, current status, directors, annual filling dates, etc.

brampton · Search Result

Corporation Name Office Address Start Date
Help A Girl Out 172 Skegby Road, Brampton, ON L6V 2T9 2018-09-05
ThruFineLine Design & Technical Drawings Inc. #77 - 65 Brickyard Way, Brampton, ON L6V 4M2 2018-09-05
10975699 Canada Inc. 108 Calm Waters Crescent, Brampton, ON L6V 4S2 2018-09-04
10975729 CANADA INC. 16 Powell Drive, Brampton, ON L6R 0L1 2018-09-04
10975877 CANADA INC. 3 Daden Oaks Dr, Brampton, ON L6P 3R8 2018-09-04
10976032 CANADA INC. 71 Monkton Circle, Brampton, ON L6Y 5Z5 2018-09-04
10976296 CANADA INC. 142 Degrassi Cove Circle, Brampton, ON L6X 0N9 2018-09-04
10976393 Canada Inc. 13 Taurus Road, Brampton, ON L7A 4E7 2018-09-04
10976407 CANADA INC. 10 Belinda Drive, Brampton, ON L7A 2W6 2018-09-04
10976458 CANADA INC. 14 Clinton Street, Brampton, ON L7A 4K8 2018-09-04
10976890 CANADA INC. 29 Sparhill Street, Brampton, ON L6R 0P1 2018-09-04
10977039 CANADA INC. 32 Kalahari Road, Brampton, ON L6R 2R2 2018-09-04
10977241 CANADA INC. 44 Templehill Rd, Brampton, ON L6R 3S6 2018-09-04
10977438 Canada Inc. 249 Elbern Markell Drive, Brampton, ON L6X 3C3 2018-09-04
Marnabs Employment Service Inc. 42 Marchbank Crescent, Brampton, ON L6S 3B1 2018-09-03
10975036 CANADA INC. 28 Silver Egret Road, Brampton, ON L7A 3P6 2018-09-03
KEEVES TECHNOLOGIES CORPORATION 14 Oak Gardens Court, Brampton, ON L6R 2Y6 2018-09-03
10975303 CANADA INC. 44 Chalkfarm Cres, Brampton, ON L7A 3W1 2018-09-03
10975460 CANADA INCORPORATED 188 Clark Boulevard, Brampton, ON L6T 4A8 2018-09-03
10974714 CANADA INC. 230 Mountainberry Rd, Brampton, ON L6R 1W3 2018-09-02
10974838 CANADA LTD. 58 Passfield Trail, Brampton, ON L6P 1T9 2018-09-02
MaxLimit Inc. 32 Darras Court, Brampton, ON L6T 1W7 2018-09-01
TREELINE PROPERTIES GROUP INC. 44 Mount Royal Circle, Brampton, ON L6P 1Y7 2018-09-01
The Scoring Factory Canada Ltd. 5 Veterans Drive, Brampton, ON L7A 0T8 2018-09-01
10973980 Canada Inc. 33 Angelucci Drive, Brampton, ON L6P 1G7 2018-09-01
10974064 Canada Inc. 12 Valleystream Circle, Brampton, ON L6P 2E2 2018-09-01
10974188 CANADA INC. 5 Birch Lake Court, Brampton, ON L6P 3M6 2018-09-01
10974218 Canada Inc. 8 Igloo Tr, Brampton, ON L6R 3K6 2018-09-01
10974234 CANADA INC. 53 Whitwell Cres, Brampton, ON L6P 1A4 2018-09-01
10974374 CANADA INC. 9 Pantages Court, Brampton, ON L6S 5B7 2018-09-01
ITWT CONSULTING INC. 23 Lawndale Crescent, Brampton, ON L6S 3L3 2018-08-31
10972436 Canada Inc. 32 - 180 Howden Blvd, Brampton, ON L6S 0E6 2018-08-31
10972444 CANADA INC. 10 Treepark Street, Brampton, ON L6R 1T3 2018-08-31
10972576 CANADA INC. 21 Clovercrest Drive, Brampton, ON L7A 2N2 2018-08-31
THIRUSHIKAN TRANSPORT INC. 74 Toba Crescent, Brampton, ON L6Z 4R8 2018-08-31
10972851 CANADA INC. 304-37 Eastbourne Drive, Brampton, ON L6T 3M1 2018-08-31
P & P ASSOCIATES INC. 9 Wandering Trail Dr, Brampton, ON L7A 1T9 2018-08-31
10972975 Canada Inc. 53 Zanetta Crescent, Brampton, ON L6Y 5Z3 2018-08-31
10973246 CANADA INC. 134 Daffodil Place, Brampton, ON L6Y 3B9 2018-08-31
10973424 CANADA INC. 5 Long Branch Trail, Brampton, ON L6P 3V5 2018-08-31
10973459 CANADA INC. 34 Showboat Crescent, Brampton, ON L6V 4R5 2018-08-31
Qalataran Synergy Corp. 8 Keywood Court, Brampton, ON L6P 4L5 2018-08-31
10973874 Canada Inc. 103 Heartview Road, Brampton, ON L6Z 0C9 2018-08-31
TRUE SOUL TRUCKING INC. 109 Yellow Brick Rd, Brampton, ON L6V 4K7 2018-08-30
10970212 CANADA INCORPORATED 8 Slipneedle Street, Brampton, ON L6S 6L5 2018-08-30
No Problem Cleaning Company Inc. 170 Bovaird Drive West, Brampton, ON L7A 1A1 2018-08-30
10970352 CANADA INC. 166 Rainforest Drive, Brampton, ON L6R 1A4 2018-08-30
10971022 CANADA INC. 5 Watsonbrook Drive, Brampton, ON L6R 0X8 2018-08-30
OMRG Transport Inc. 29 Twisted Oak Street, Brampton, ON L6R 1T1 2018-08-30
DEFENDER MOTORFREIGHT LTD. 74 Creditstone Rd, Brampton, ON L6Y 4G1 2018-08-30
10971863 CANADA INC. 44 Wilton Drive, Brampton, ON L6W 3A1 2018-08-30
10971880 CANADA INC. 36 Blazing Star Dr, Brampton, ON L6R 3E7 2018-08-30
Gardnr Corporation 9 Notman Way, Brampton, ON L7A 2Z2 2018-08-30
TechnoTree Inc. 16 Saunter Court, Brampton, ON L7A 0S7 2018-08-30
SOFTSEEK TECHNOLOGIES INC. 22 Langwith Crt, Brampton, ON L6Y 1Z8 2018-08-29
10968544 CANADA INC. 108 Banting Cres, Brampton, ON L6Y 2K9 2018-08-29
TEVF RESOURCES LTD. 112, Brampton, ON L6Y 0X2 2018-08-29
10968633 CANADA INC. 53 Mandarin Cres, Brampton, ON L6S 2S2 2018-08-29
10968684 CANADA INC. 7 Silver Willow Trail, Brampton, ON L6R 0P1 2018-08-29
Fauji Transport Inc. 16 Powell Drive, Brampton, ON L6R 0L1 2018-08-29
Royal Leaf Painting Inc. 26 Haverstock Crescent, Brampton, ON L7A 4E1 2018-08-29
10969044 CANADA INC. 58 Creditstone Rd, Brampton, ON L6Y 3C3 2018-08-29
DEBOYE Inc. 33 Butterworth Road, Brampton, ON L7A 3Z2 2018-08-29
BVD HOLDINGS CALEDON INC. 130 Delta Park Boulevard, Brampton, ON L6T 5E7 2018-08-29
10969516 CANADA INC. 72 Rivermere Court, Brampton, ON L7A 1S8 2018-08-29
10969532 CANADA INC. 30 Peacekeeping Crt, Brampton, ON L6P 4H1 2018-08-29
10969648 Canada Inc. 220 Sussexvale Drive, Brampton, ON L6R 0W2 2018-08-29
ALPHA PETROLEUM LIMITED 700-21 Queen Street East, Brampton, ON L6W 3P1 2018-08-29
TapTrainer Inc. 68 Supino Crescent, Brampton, ON L6P 1X3 2018-08-28
10965804 CANADA INC. 44 Arrowstone Court, Brampton, ON L6R 3T5 2018-08-28
HUES OF GLOW INC. 20 Wikander Way, Brampton, ON L6V 3X3 2018-08-28
10966029 Canada Inc. 61 Hawridge Trial, Brampton, ON L6P 2T6 2018-08-28
10966347 Canada Inc. 130 Saintsbury Crescent, Brampton, ON L6R 2W4 2018-08-28
10966410 CANADA INC. 86 Sheldrake Ct, Brampton, ON L6Y 2W9 2018-08-28
10966487 Canada Inc. 33 Germain Circle, Brampton, ON L6X 5K2 2018-08-28
10966517 CANADA INC. 40 Legacy Lane, Brampton, ON L6X 4T6 2018-08-28
10966550 Canada Inc. 136 Yuile Court, Brampton, ON L6Y 5J6 2018-08-28
10966568 CANADA INC. 67 Whiteface Crescent, Brampton, ON L6X 4W6 2018-08-28
10966606 CANADA INC. 57 Game Creek Crescent, Brampton, ON L7A 0J3 2018-08-28
10967475 CANADA INC. 19 Quintessa Trail, Brampton, ON L6R 2V3 2018-08-28
10967548 CANADA LTD. 49 Perkins Drive, Brampton, ON L7A 0J3 2018-08-28
theStats Corporation 22 Heatherdale Drive, Brampton, ON L7A 2H6 2018-08-28
inTellee Information Technology Inc. 373 Steeles Avenue West Unit 202, Brampton, ON L6Y 5H9 2018-08-27
Kinetic Minds Inc. 10 Tawnberry Circle, Brampton, ON L7A 0J6 2018-08-27
10963429 CANADA LTD. 146 Pefferlaw Circle, Brampton, ON L6Y 0L2 2018-08-27
10963801 CANADA INC. 25 Feather Reed Way, Brampton, ON L6R 3A3 2018-08-27
10963852 Canada Inc. 5 Shady Oak Lane, Brampton, ON L6R 2Z2 2018-08-27
TAG FOUR CANADA INC. Unit 16, 499 Ray Lawson Blvd, Brampton, ON L6Y 4E6 2018-08-27
10963909 Canada Inc. 39 Education Rd, Brampton, ON L5A 1V9 2018-08-27
10963976 CANADA INC. 52 Sharon Crt, Brampton, ON L6W 3B7 2018-08-27
10964115 CANADA INC. 55 Banbridge Crescent, Brampton, ON L6X 5M1 2018-08-27
10964425 CANADA INC. 12 Chadwick Street, Brampton, ON L6Y 4Y5 2018-08-27
10964468 Canada Inc. 56 Lyle Way, Brampton, ON L6X 5P8 2018-08-27
10964514 CANADA INC. 37 Powell Drive, Brampton, ON L6R 0L1 2018-08-27
North American Group Of Companies Inc. 76 Buick Blvd, Brampton, ON L7A 3X7 2018-08-27
10964778 CANADA INC. 143 Southlake Blvd, Brampton, ON L6V 4S3 2018-08-27
VAN OVERSEAS LTD. 380 Royal West Drive, Brampton, ON L6X 5J9 2018-08-27
Endless Temptations Inc. 15 Miracle Trail, Brampton, ON L7A 0Y3 2018-08-27
10964905 CANADA LTD. 113 Passfield Trail, Brampton, ON L6P 1V1 2018-08-27
10964930 Canada Inc. 278 Vintage Gate, Brampton, ON L6X 5B7 2018-08-27